Regional Weather Roundup
Issued by NWS Northern Indiana

Home | Current Version | Previous Version | Text Only | Print | Product List | Glossary Off
Versions: 1 2 3 4 5 6 7 8 9 10 11 12 13 14 15 16 17 18 19 20 21 22 23 24 25 26 27 28 29 30 31 32 33 34 35 36 37 38 39 40 41 42 43 44 45 46 47 48 49 50

000
ASUS43 KIWX 261900
RWRIWX

KIWX WEATHER ROUNDUP
NATIONAL WEATHER SERVICE NORTHERN INDIANA
300 PM EDT WED JUL 26 2017

NOTE: "FAIR" INDICATES FEW OR NO CLOUDS BELOW 12,000 FEET WITH NO
SIGNIFICANT WEATHER AND/OR OBSTRUCTIONS TO VISIBILITY.

* THESE STATIONS ARE NOT UNDER NWS QUALITY CONTROL. THEY ALSO MAY NOT
  REPORT WEATHER SUCH AS PRECIPITATION OR FOG.

INZ001>027-262000-
NORTHERN INDIANA

CITY           SKY/WX    TMP DP  RH WIND       PRES   REMARKS
GARY*          CLOUDY    84  66  54 SW7       30.05F
MICHIGAN CITY* CLOUDY    81  68  65 S5        30.05F
SOUTH BEND     MOSUNNY   82  64  54 S10       30.07F
ELKHART*       MOSUNNY   81  64  57 SW7       30.07F
GOSHEN         MOSUNNY   82  63  52 S7        30.08F
MONTICELLO*    CLOUDY    82  68  61 S6        30.06F
FORT WAYNE     PTSUNNY   80  65  59 CALM      30.10F
PERU/GRISSOM   PTSUNNY   82  68  62 SE6       30.07F

$$
INZ028>050-262000-
CENTRAL INDIANA

CITY           SKY/WX    TMP DP  RH WIND       PRES   REMARKS
LAFAYETTE      MOSUNNY   82  71  69 S6        30.06F
KOKOMO*        CLOUDY    81  68  64 S7        30.09F
MUNCIE*        MOSUNNY   84  62  47 VRB5      30.10S
INDIANAPOLIS   PTSUNNY   83  68  60 S5        30.08F

$$
MIZ043>046-050>051-056>058-064>065-071>073-077>080-262000-
SOUTHWEST LOWER MICHIGAN

CITY           SKY/WX    TMP DP  RH WIND       PRES   REMARKS
BATTLE CREEK   CLOUDY    80  64  58 S6        30.10R
BENTON HARBOR  MOSUNNY   82  62  50 SW6       30.06R
COLDWATER*     PTSUNNY   78  62  57 SW5       30.09F
HILLSDALE*     CLOUDY    77  61  57 SW6       30.10S
HOLLAND        CLOUDY    82  65  56 W5        30.08S
GRAND RAPIDS   PTSUNNY   81  63  54 SW5       30.07F
KALAMAZOO      CLOUDY    81  60  48 S6        30.08S
STURGIS*       PTSUNNY   79  65  62 S8        30.07F
THREE RIVERS*  FAIR      80  64  58 S8        30.08F

$$
OHZ001>008-015>018-024>025-262000-
NORTHWEST OHIO

CITY           SKY/WX    TMP DP  RH WIND       PRES   REMARKS
DEFIANCE       MOSUNNY   78  61  55 S8        30.09F
FINDLAY        SUNNY     79  62  56 S9        30.09F
TOLEDO EXPRESS MOSUNNY   77  63  61 S7        30.09F
TOLEDO METCALF MOSUNNY   80  63  55 SW7       30.09F
LIMA           SUNNY     79  62  56 S8        30.11F

$$
AND FOR LAKE MICHIGAN COASTAL AND OPEN LAKE BUOY OBSERVATIONS

STATION/POSITION TEMP    WIND        PRES    VSBY  WAVE
                 AIR SEA DIR/SP/G                  HT/PER
                 (F)     (DEG/KT/KT) (MB)    (MI)  (FT/S)
CALUMET HARBOR    82     200/  6/ 11 1016.5F
MICHIGAN CITY     79     160/  6/  8   N/A
BURNS HARBOR      82     230/  7/ 13 1017.6F
SAINT JOSEPH      76     200/  7/  8 1018.3
SOUTH LAKE BUOY   71 71  180/ 10/ 12 1017.6          2/ 5
4 MI NW BRIDGMAN  76 75  210/  2/  2 1017.3F         1/ 3
MICHIGAN CITY     78 75  190/  4/  6   N/A           1

$$
&&




USA.gov is the U.S. government's official web portal to all federal, state and local government web resources and services.